Weather History for KJAN - March, 2013

Change the Weather History Date:

Sunday, March 31, 2013

  Actual Average Record
Temperature  
Mean Temperature 62 °F 60 °F  
Max Temperature 71 °F 72 °F 87 °F (1974)
Min Temperature 52 °F 48 °F 29 °F (1987)
Degree Days  
Heating Degree Days 3 6  
Month to date heating degree days 392 278  
Since 1 July heating degree days 2143 2270  
Cooling Degree Days 0 1  
Month to date cooling degree days 3 27  
Year to date cooling degree days 17 37  
Growing Degree Days 11 (Base 50)    
Moisture  
Dew Point 57 °F    
Average Humidity 87    
Maximum Humidity 100    
Minimum Humidity 73    
Precipitation  
Precipitation 0.34 in 0.18 in 3.10 in (1922)
Month to date precipitation 5.59 5.04  
Year to date precipitation 23.03 14.77  
Sea Level Pressure  
Sea Level Pressure 29.95 in    
Wind  
Wind Speed 4 mph (SW)    
Max Wind Speed 20 mph    
Max Gust Speed 30 mph    
Visibility 7 miles    
Events Fog , Rain , Thunderstorm    
T = Trace of Precipitation, MM = Missing Value Source: NWS Daily Summary

Daily Weather History Graph

Daily Weather History Graph

Search for Another Location

Airport or City:

Trip Planner

Search our weather history database for the weather conditions in past years. The results will help you decide how hot, cold, wet, or windy it might be!

Date:

Astronomy

Mar. 31, 2013 Rise Set
Actual Time 6:49 AM CDT 7:19 PM CDT
Civil Twilight 6:24 AM CDT 7:44 PM CDT
Nautical Twilight 5:55 AM CDT 8:13 PM CDT
Astronomical Twilight 5:26 AM CDT 8:42 PM CDT
Moon No Moon Rise 9:51 AM CDT (3/31)
Length of Visible Light 13h 19m
Length of Day
12h 30m
Waning Gibbous, 77% of the Moon is Illuminated
Mar 31
Waning Gibbous
Apr 2
Last Quarter
Apr 10
New
Apr 18
First Quarter
Apr 25
Full

Hourly Weather History & Observations

Time (CDT) Temp. Dew Point Humidity Pressure Visibility Wind Dir Wind Speed Gust Speed Precip Events Conditions
12:54 AM 59.0 °F 54.0 °F 83% 30.01 in 10.0 mi South 5.8 mph - N/A   Clear
1:54 AM 57.9 °F 55.0 °F 90% 29.99 in 10.0 mi South 5.8 mph - N/A   Clear
2:54 AM 57.0 °F 54.0 °F 89% 29.99 in 10.0 mi South 6.9 mph - N/A   Clear
3:54 AM 57.0 °F 54.0 °F 89% 29.97 in 9.0 mi South 8.1 mph - N/A   Clear
4:54 AM 55.9 °F 55.0 °F 97% 29.97 in 8.0 mi South 5.8 mph - N/A   Clear
5:34 AM 57.2 °F 55.4 °F 94% 29.97 in 6.0 mi South 5.8 mph - N/A   Scattered Clouds
5:43 AM 57.2 °F 55.4 °F 94% 29.97 in 7.0 mi South 8.1 mph - N/A   Mostly Cloudy
5:54 AM 57.9 °F 57.0 °F 97% 29.96 in 7.0 mi South 6.9 mph - N/A   Overcast
6:54 AM 60.1 °F 59.0 °F 96% 29.97 in 6.0 mi SSW 8.1 mph - N/A   Overcast
7:54 AM 62.1 °F 59.0 °F 90% 29.98 in 7.0 mi SSW 8.1 mph - N/A   Overcast
8:54 AM 63.0 °F 60.1 °F 90% 29.98 in 10.0 mi SSW 6.9 mph - N/A   Overcast
9:16 AM 64.4 °F 60.8 °F 88% 29.98 in 10.0 mi SSW 9.2 mph - N/A   Mostly Cloudy
9:54 AM 64.9 °F 60.1 °F 84% 29.98 in 10.0 mi Calm Calm - N/A   Overcast
10:23 AM 66.2 °F 59.0 °F 78% 29.98 in 10.0 mi Calm Calm - N/A   Overcast
10:54 AM 68.0 °F 61.0 °F 78% 29.97 in 10.0 mi Calm Calm - N/A   Overcast
11:54 AM 70.0 °F 60.1 °F 71% 29.96 in 10.0 mi Variable 5.8 mph - N/A   Overcast
12:06 PM 69.8 °F 60.8 °F 73% 29.97 in 10.0 mi SW 6.9 mph - N/A   Overcast
12:54 PM 70.0 °F 60.1 °F 71% 29.96 in 10.0 mi West 6.9 mph - N/A   Overcast
1:54 PM 69.1 °F 62.1 °F 78% 29.94 in 10.0 mi SW 6.9 mph - 0.01 in   Overcast
2:01 PM 69.8 °F 60.8 °F 73% 29.95 in 10.0 mi WSW 5.8 mph - N/A   Overcast
2:54 PM 64.9 °F 62.1 °F 90% 29.94 in 5.0 mi Variable 6.9 mph - 0.00 in Rain Light Rain
2:57 PM 64.4 °F 62.6 °F 94% 29.94 in 1.8 mi WNW 6.9 mph - 0.00 in Rain Heavy Rain
3:04 PM 64.4 °F 62.6 °F 94% 29.95 in 1.2 mi WSW 3.5 mph - 0.08 in Rain Rain
3:09 PM 64.4 °F 60.8 °F 88% 29.98 in 2.0 mi West 16.1 mph 29.9 mph 0.10 in Rain Light Rain
3:11 PM 62.6 °F 60.8 °F 94% 29.99 in 2.0 mi West 17.3 mph 29.9 mph 0.10 in Rain Heavy Rain
3:13 PM 62.6 °F 57.2 °F 82% 29.99 in 2.0 mi West 12.7 mph 29.9 mph 0.11 in Rain , Thunderstorm Heavy Thunderstorms and Rain
3:40 PM 59.0 °F 55.4 °F 88% 29.98 in 4.0 mi NNW 10.4 mph - 0.22 in Rain , Thunderstorm Thunderstorms and Rain
3:54 PM 59.0 °F 57.0 °F 93% 29.96 in 4.0 mi NNW 6.9 mph - 0.27 in Rain , Thunderstorm Thunderstorms and Rain
4:09 PM 59.0 °F 57.2 °F 94% 29.95 in 5.0 mi Calm Calm - 0.03 in Rain Light Rain
4:32 PM 59.0 °F 57.2 °F 94% 29.85 in 10.0 mi SE 15.0 mph 18.4 mph 0.06 in Rain Light Rain
4:54 PM 59.0 °F 57.0 °F 93% 29.86 in 10.0 mi SE 5.8 mph - 0.06 in   Clear
5:21 PM 60.8 °F 57.2 °F 88% 29.89 in 10.0 mi North 4.6 mph - N/A   Scattered Clouds
5:41 PM 60.8 °F 57.2 °F 88% 29.90 in 10.0 mi Calm Calm - N/A   Mostly Cloudy
5:54 PM 61.0 °F 57.0 °F 87% 29.90 in 10.0 mi Calm Calm - N/A   Mostly Cloudy
6:36 PM 62.6 °F 57.2 °F 82% 29.89 in 10.0 mi Calm Calm - N/A   Mostly Cloudy
6:54 PM 61.0 °F 57.0 °F 87% 29.88 in 10.0 mi Calm Calm - N/A   Mostly Cloudy
7:22 PM 59.0 °F 55.4 °F 88% 29.90 in 10.0 mi NW 4.6 mph - N/A   Scattered Clouds
7:54 PM 55.9 °F 54.0 °F 93% 29.91 in 9.0 mi Calm Calm - N/A   Clear
8:17 PM 55.4 °F 53.6 °F 94% 29.92 in 1.8 mi Calm Calm - N/A   Clear
8:26 PM 53.6 °F 53.6 °F 100% 29.92 in 0.5 mi Calm Calm - N/A Fog Fog
8:38 PM 55.4 °F 53.6 °F 94% 29.92 in 0.5 mi Calm Calm - N/A Fog Fog
8:54 PM 55.9 °F 54.0 °F 93% 29.92 in 0.8 mi Calm Calm - N/A   Mist
8:57 PM 55.4 °F 55.4 °F 100% 29.93 in 1.2 mi Calm Calm - N/A   Partly Cloudy
9:04 PM 53.6 °F 53.6 °F 100% 29.93 in 5.0 mi Calm Calm - N/A   Mostly Cloudy
9:19 PM 53.6 °F 51.8 °F 94% 29.94 in 5.0 mi Calm Calm - N/A   Scattered Clouds
9:54 PM 54.0 °F 53.1 °F 97% 29.96 in 5.0 mi Calm Calm - N/A   Scattered Clouds
10:54 PM 53.1 °F 52.0 °F 96% 29.96 in 7.0 mi Calm Calm - N/A   Scattered Clouds
11:04 PM 53.6 °F 51.8 °F 94% 29.97 in 0.8 mi Calm Calm - N/A   Scattered Clouds
11:12 PM 51.8 °F 51.8 °F 100% 29.98 in 0.5 mi SSW 4.6 mph - N/A Fog Fog
11:27 PM 53.6 °F 53.6 °F 100% 29.97 in 2.5 mi Calm Calm - N/A   Overcast
11:34 PM 55.4 °F 53.6 °F 94% 29.97 in 7.0 mi Calm Calm - N/A   Overcast
11:54 PM 55.0 °F 54.0 °F 96% 29.96 in 7.0 mi Calm Calm - N/A   Mostly Cloudy